When you browse on this site, cookies collect data to enhance your experience and personalize the content and advertising you see.
Visit our Privacy Policy to learn more. By continuing to use the site, you agree to this use of cookies and data.
  • In Switzerland
  • List of Countries
  • For 7 days
  • Water Temperature
  • Satellite Maps
  • Weather Map
  • Weather Widgets
  • user-avatar
    Login

    Hourly Weather Biskira

    Today, 20 March, Wednesday

    Time Temperature Precipitation Wind Pressure Humidity
    00:00 +14°C° 0 mm 2 mps 755 mmHg 60%
    01:00 +13°C° 0 mm 2 mps 754 mmHg 63%
    02:00 +13°C° 0 mm 2 mps 754 mmHg 65%
    03:00 +12°C° 0 mm 1 mps 754 mmHg 68%
    04:00 +12°C° 0 mm 2 mps 754 mmHg 68%
    05:00 +12°C° 0 mm 2 mps 755 mmHg 67%
    06:00 +12°C° 0 mm 2 mps 755 mmHg 66%
    07:00 +12°C° 0 mm 3 mps 755 mmHg 57%
    08:00 +13°C° 0 mm 3 mps 755 mmHg 48%
    09:00 +15°C° 0 mm 4 mps 755 mmHg 38%
    10:00 +15°C° 0 mm 4 mps 755 mmHg 34%
    11:00 +17°C° 0 mm 4 mps 755 mmHg 30%
    12:00 +18°C° 0 mm 3 mps 755 mmHg 26%
    13:00 +19°C° 0 mm 4 mps 755 mmHg 26%
    14:00 +19°C° 0 mm 4 mps 754 mmHg 25%
    15:00 +19°C° 0 mm 4 mps 754 mmHg 25%
    16:00 +17°C° 0 mm 5 mps 754 mmHg 28%
    17:00 +17°C° 0 mm 6 mps 754 mmHg 32%
    18:00 +16°C° 0 mm 6 mps 754 mmHg 35%
    19:00 +16°C° 0 mm 6 mps 755 mmHg 37%
    20:00 +15°C° 0 mm 5 mps 755 mmHg 39%
    21:00 +15°C° 0 mm 4 mps 756 mmHg 41%
    22:00 +14°C° 0 mm 4 mps 756 mmHg 43%
    23:00 +14°C° 0 mm 5 mps 756 mmHg 44%

    Tomorrow, 21 March, Thursday

    Time Temperature Precipitation Wind Pressure Humidity
    00:00 +13°C° 0 mm 5 mps 756 mmHg 46%
    01:00 +13°C° 0 mm 5 mps 755 mmHg 47%
    02:00 +13°C° 0 mm 6 mps 755 mmHg 49%
    03:00 +11°C° 0 mm 7 mps 754 mmHg 50%
    04:00 +11°C° 0 mm 7 mps 754 mmHg 51%
    05:00 +11°C° 0 mm 7 mps 754 mmHg 51%
    06:00 +11°C° 0 mm 7 mps 754 mmHg 52%
    07:00 +12°C° 0.1 mm 7 mps 754 mmHg 50%
    08:00 +14°C° 0.1 mm 7 mps 754 mmHg 48%
    09:00 +13°C° 0.1 mm 8 mps 754 mmHg 46%
    10:00 +16°C° 0 mm 7 mps 754 mmHg 42%
    11:00 +17°C° 0 mm 7 mps 753 mmHg 39%
    12:00 +18°C° 0 mm 7 mps 753 mmHg 36%
    13:00 +20°C° 0 mm 7 mps 753 mmHg 35%
    14:00 +20°C° 0 mm 6 mps 752 mmHg 34%
    15:00 +21°C° 0 mm 6 mps 752 mmHg 33%
    16:00 +20°C° 0.1 mm 7 mps 752 mmHg 37%
    17:00 +18°C° 0.1 mm 8 mps 752 mmHg 41%
    18:00 +17°C° 0.1 mm 9 mps 752 mmHg 45%
    19:00 +17°C° 0 mm 9 mps 752 mmHg 47%
    20:00 +16°C° 0 mm 8 mps 753 mmHg 48%
    21:00 +16°C° 0 mm 7 mps 753 mmHg 49%
    22:00 +16°C° 0 mm 7 mps 753 mmHg 50%
    23:00 +16°C° 0 mm 6 mps 753 mmHg 52%

    Day after tomorrow, 22 March, Friday

    Time Temperature Precipitation Wind Pressure Humidity
    00:00 +15°C° 0 mm 6 mps 753 mmHg 54%
    01:00 +15°C° 0.2 mm 6 mps 753 mmHg 55%
    02:00 +15°C° 0.2 mm 6 mps 753 mmHg 56%
    03:00 +15°C° 0.2 mm 6 mps 752 mmHg 58%
    04:00 +15°C° 0.1 mm 6 mps 753 mmHg 59%
    05:00 +14°C° 0.1 mm 6 mps 753 mmHg 59%
    06:00 +14°C° 0.1 mm 5 mps 753 mmHg 60%
    07:00 +16°C° 0.1 mm 5 mps 753 mmHg 54%
    08:00 +17°C° 0.1 mm 5 mps 753 mmHg 49%
    09:00 +19°C° 0.1 mm 5 mps 753 mmHg 43%
    10:00 +20°C° 0 mm 5 mps 753 mmHg 41%
    11:00 +20°C° 0 mm 5 mps 753 mmHg 39%
    12:00 +21°C° 0 mm 4 mps 753 mmHg 37%
    13:00 +21°C° 0 mm 4 mps 753 mmHg 34%
    14:00 +21°C° 0 mm 4 mps 752 mmHg 31%
    15:00 +22°C° 0 mm 3 mps 752 mmHg 27%
    16:00 +21°C° 0 mm 3 mps 753 mmHg 29%
    17:00 +21°C° 0 mm 3 mps 753 mmHg 31%
    18:00 +20°C° 0 mm 4 mps 753 mmHg 33%
    19:00 +19°C° 0 mm 4 mps 754 mmHg 37%
    20:00 +19°C° 0 mm 3 mps 755 mmHg 41%
    21:00 +18°C° 0 mm 3 mps 756 mmHg 45%
    22:00 +17°C° 0 mm 3 mps 756 mmHg 47%
    23:00 +17°C° 0 mm 3 mps 756 mmHg 49%

    23 March, Saturday

    Time Temperature Precipitation Wind Pressure Humidity
    00:00 +16°C° 0 mm 3 mps 756 mmHg 52%
    01:00 +16°C° 0 mm 3 mps 756 mmHg 53%
    02:00 +14°C° 0 mm 3 mps 756 mmHg 54%
    03:00 +14°C° 0 mm 3 mps 756 mmHg 55%
    04:00 +14°C° 0 mm 3 mps 756 mmHg 56%
    05:00 +14°C° 0 mm 2 mps 756 mmHg 57%
    06:00 +14°C° 0 mm 2 mps 757 mmHg 57%
    07:00 +15°C° 0 mm 2 mps 757 mmHg 52%
    08:00 +17°C° 0 mm 2 mps 757 mmHg 47%
    09:00 +18°C° 0 mm 2 mps 757 mmHg 41%
    10:00 +20°C° 0 mm 1 mps 757 mmHg 38%
    11:00 +21°C° 0 mm 1 mps 756 mmHg 36%
    12:00 +21°C° 0 mm 1 mps 756 mmHg 33%
    13:00 +22°C° 0 mm 1 mps 756 mmHg 32%
    14:00 +22°C° 0 mm 1 mps 755 mmHg 30%
    15:00 +23°C° 0 mm 1 mps 754 mmHg 29%
    16:00 +21°C° 0 mm 2 mps 755 mmHg 30%
    17:00 +21°C° 0 mm 2 mps 755 mmHg 31%
    18:00 +21°C° 0 mm 3 mps 755 mmHg 32%
    19:00 +20°C° 0 mm 3 mps 756 mmHg 34%
    20:00 +20°C° 0 mm 2 mps 756 mmHg 36%
    21:00 +19°C° 0 mm 2 mps 757 mmHg 38%
    22:00 +19°C° 0 mm 2 mps 757 mmHg 40%
    23:00 +18°C° 0 mm 2 mps 756 mmHg 43%

    24 March, Sunday

    Time Temperature Precipitation Wind Pressure Humidity
    00:00 +19°C° 0 mm 1 mps 756 mmHg 45%
    01:00 +18°C° 0 mm 1 mps 756 mmHg 48%
    02:00 +17°C° 0 mm 2 mps 756 mmHg 51%
    03:00 +16°C° 0 mm 2 mps 756 mmHg 54%
    04:00 +16°C° 0 mm 2 mps 756 mmHg 56%
    05:00 +16°C° 0 mm 2 mps 756 mmHg 59%
    06:00 +15°C° 0 mm 1 mps 756 mmHg 62%
    07:00 +16°C° 0 mm 2 mps 756 mmHg 57%
    08:00 +17°C° 0 mm 3 mps 757 mmHg 53%
    09:00 +18°C° 0 mm 4 mps 757 mmHg 48%
    10:00 +19°C° 0 mm 4 mps 756 mmHg 47%
    11:00 +19°C° 0 mm 4 mps 756 mmHg 45%
    12:00 +20°C° 0 mm 4 mps 756 mmHg 44%
    13:00 +20°C° 0 mm 4 mps 755 mmHg 43%
    14:00 +20°C° 0 mm 4 mps 755 mmHg 42%
    15:00 +21°C° 0 mm 3 mps 754 mmHg 40%
    16:00 +20°C° 0 mm 3 mps 754 mmHg 41%
    17:00 +20°C° 0 mm 3 mps 754 mmHg 42%
    18:00 +20°C° 0 mm 3 mps 754 mmHg 43%
    19:00 +19°C° 0 mm 3 mps 755 mmHg 45%
    20:00 +19°C° 0 mm 3 mps 755 mmHg 48%
    21:00 +18°C° 0 mm 3 mps 755 mmHg 50%
    22:00 +18°C° 0 mm 3 mps 755 mmHg 53%
    23:00 +17°C° 0 mm 2 mps 755 mmHg 56%

    25 March, Monday

    Time Temperature Precipitation Wind Pressure Humidity
    00:00 +17°C° 0 mm 2 mps 755 mmHg 60%
    01:00 +16°C° 0 mm 2 mps 755 mmHg 61%
    02:00 +16°C° 0 mm 2 mps 754 mmHg 62%
    03:00 +15°C° 0 mm 1 mps 754 mmHg 64%
    04:00 +15°C° 0 mm 1 mps 754 mmHg 64%
    05:00 +15°C° 0 mm 1 mps 754 mmHg 64%
    06:00 +15°C° 0 mm 1 mps 754 mmHg 65%
    07:00 +16°C° 0 mm 1 mps 754 mmHg 59%
    08:00 +18°C° 0 mm 1 mps 755 mmHg 54%
    09:00 +20°C° 0 mm 1 mps 755 mmHg 48%
    10:00 +21°C° 0 mm 1 mps 754 mmHg 46%
    11:00 +21°C° 0 mm 1 mps 754 mmHg 43%
    12:00 +21°C° 0 mm 2 mps 753 mmHg 40%
    13:00 +23°C° 0 mm 2 mps 753 mmHg 38%
    14:00 +23°C° 0 mm 2 mps 752 mmHg 37%
    15:00 +24°C° 0 mm 3 mps 752 mmHg 35%
    16:00 +22°C° 0 mm 3 mps 752 mmHg 37%
    17:00 +22°C° 0 mm 3 mps 752 mmHg 38%
    18:00 +23°C° 0 mm 2 mps 752 mmHg 39%
    19:00 +21°C° 0 mm 2 mps 752 mmHg 40%
    20:00 +21°C° 0 mm 2 mps 753 mmHg 41%
    21:00 +20°C° 0 mm 2 mps 753 mmHg 42%
    22:00 +19°C° 0 mm 2 mps 753 mmHg 44%
    23:00 +19°C° 0 mm 2 mps 753 mmHg 46%
    Show more